Change the Weather History Date:

Monday, November 26, 2012

  Actual Average Record
Temperature  
Mean Temperature 9 °F -  
Max Temperature 12 °F 28 °F 37 °F (1997)
Min Temperature 6 °F 16 °F -7 °F (2014)
Degree Days  
Heating Degree Days 56    
Moisture  
Dew Point 1 °F    
Average Humidity 74    
Maximum Humidity 79    
Minimum Humidity 62    
Precipitation  
Precipitation 0.00 in - - ()
Sea Level Pressure  
Sea Level Pressure 30.12 in    
Wind  
Wind Speed 9 mph (WNW)    
Max Wind Speed 13 mph    
Max Gust Speed 21 mph    
Visibility 8 miles    
Events Snow    
Averages and records for this station are not official NWS values.
T = Trace of Precipitation, MM = Missing Value Source: NWS Daily Summary

Daily Weather History Graph

Daily Weather History Graph

Search for Another Location

Airport or City:

Trip Planner

Search our weather history database for the weather conditions in past years. The results will help you decide how hot, cold, wet, or windy it might be!

Date:

Astronomy

Nov. 26, 2012 Rise Set
Actual Time 7:23 AM CST 4:13 PM CST
Civil Twilight 6:48 AM CST 4:48 PM CST
Nautical Twilight 6:10 AM CST 5:27 PM CST
Astronomical Twilight 5:33 AM CST 6:04 PM CST
Moon 3:09 PM CST (11/26) 5:29 AM CST (11/26)
Length of Visible Light 9h 59m
Length of Day
8h 49m
Waxing Gibbous, 97% of the Moon is Illuminated
Nov 26
Waxing Gibbous
Nov 28
Full
Dec 6
Last Quarter
Dec 13
New
Dec 19
First Quarter

Hourly Weather History & Observations

Time (CST) Temp. Windchill Dew Point Humidity Pressure Visibility Wind Dir Wind Speed Gust Speed Precip Events Conditions
12:01 AM 6.8 °F -8.6 °F -0.4 °F 72% 29.98 in 10.0 mi NW 11.5 mph 18.4 mph N/A   Clear
12:21 AM 6.8 °F -8.6 °F -0.4 °F 72% 29.98 in 10.0 mi NW 11.5 mph 16.1 mph N/A   Clear
12:41 AM 6.8 °F -7.8 °F -0.4 °F 72% 29.99 in 10.0 mi NW 10.4 mph - N/A   Clear
1:01 AM 6.8 °F -7.8 °F -0.4 °F 72% 29.99 in 10.0 mi NW 10.4 mph - N/A   Clear
1:21 AM 6.8 °F -8.6 °F -0.4 °F 72% 29.99 in 10.0 mi NW 11.5 mph 16.1 mph N/A   Scattered Clouds
2:01 AM 6.8 °F -8.6 °F 1.4 °F 79% 30.01 in 7.0 mi NW 11.5 mph 20.7 mph N/A   Overcast
2:21 AM 8.6 °F -3.7 °F 1.4 °F 73% 30.03 in 7.0 mi NW 8.1 mph 18.4 mph N/A   Overcast
2:41 AM 8.6 °F -5.5 °F 1.4 °F 73% 30.03 in 10.0 mi NW 10.4 mph 17.3 mph N/A   Overcast
3:01 AM 8.6 °F -6.3 °F 1.4 °F 73% 30.04 in 10.0 mi NW 11.5 mph 18.4 mph N/A   Overcast
3:21 AM 6.8 °F -5.9 °F 1.4 °F 79% 30.04 in 10.0 mi NW 8.1 mph 17.3 mph N/A   Mostly Cloudy
3:41 AM 6.8 °F -4.8 °F 1.4 °F 79% 30.05 in 10.0 mi NW 6.9 mph - N/A   Mostly Cloudy
4:01 AM 6.8 °F -7.8 °F 1.4 °F 79% 30.05 in 10.0 mi NW 10.4 mph - N/A   Mostly Cloudy
4:21 AM 6.8 °F -8.6 °F 1.4 °F 79% 30.06 in 7.0 mi NW 11.5 mph 17.3 mph N/A   Overcast
4:41 AM 6.8 °F -9.3 °F 1.4 °F 79% 30.06 in 10.0 mi NW 12.7 mph 17.3 mph N/A   Overcast
5:01 AM 6.8 °F -7.8 °F 1.4 °F 79% 30.07 in 7.0 mi NW 10.4 mph 18.4 mph N/A   Overcast
5:21 AM 6.8 °F -6.9 °F 1.4 °F 79% 30.07 in 10.0 mi NW 9.2 mph 17.3 mph N/A   Overcast
5:41 AM 6.8 °F -7.8 °F 1.4 °F 79% 30.07 in 7.0 mi NW 10.4 mph 17.3 mph N/A   Overcast
6:01 AM 6.8 °F -5.9 °F 1.4 °F 79% 30.07 in 10.0 mi NW 8.1 mph 17.3 mph N/A   Overcast
6:21 AM 6.8 °F -5.9 °F 1.4 °F 79% 30.08 in 3.0 mi NW 8.1 mph - N/A   Overcast
6:41 AM 6.8 °F -9.3 °F 1.4 °F 79% 30.09 in 7.0 mi NW 12.7 mph 20.7 mph N/A   Overcast
7:01 AM 6.8 °F -8.6 °F 1.4 °F 79% 30.10 in 10.0 mi NW 11.5 mph 18.4 mph N/A   Overcast
7:21 AM 6.8 °F -9.3 °F 1.4 °F 79% 30.10 in 5.0 mi NW 12.7 mph 20.7 mph N/A   Overcast
7:41 AM 6.8 °F -5.9 °F 1.4 °F 79% 30.12 in 5.0 mi WNW 8.1 mph 18.4 mph N/A   Overcast
8:01 AM 6.8 °F -8.6 °F 1.4 °F 79% 30.12 in 7.0 mi NW 11.5 mph 18.4 mph N/A   Overcast
8:21 AM 6.8 °F -7.8 °F 1.4 °F 79% 30.13 in 2.0 mi NW 10.4 mph - N/A   Overcast
8:41 AM 6.8 °F -8.6 °F 1.4 °F 79% 30.13 in 7.0 mi NW 11.5 mph 19.6 mph N/A   Overcast
9:01 AM 8.6 °F -4.7 °F 1.4 °F 73% 30.14 in 2.5 mi WNW 9.2 mph 17.3 mph N/A   Overcast
10:01 AM 10.4 °F -3.3 °F 1.4 °F 67% 30.17 in 5.0 mi NW 10.4 mph - N/A   Overcast
10:21 AM 10.4 °F -3.3 °F 1.4 °F 67% 30.17 in 7.0 mi North 10.4 mph - N/A   Overcast
10:35 AM 10.4 °F -2.4 °F 1.4 °F 67% 30.17 in 5.0 mi North 9.2 mph - N/A Snow Light Snow
10:53 AM 10.4 °F -0.4 °F 1.4 °F 67% 30.17 in 3.0 mi North 6.9 mph - N/A Snow Light Snow
11:13 AM 10.4 °F 2.2 °F 1.4 °F 67% 30.17 in 7.0 mi NW 4.6 mph - N/A Snow Light Snow
11:33 AM 10.4 °F -0.4 °F -0.4 °F 62% 30.17 in 10.0 mi NNW 6.9 mph - N/A   Scattered Clouds
11:54 AM 12.2 °F 6.1 °F 1.4 °F 62% 30.17 in 2.5 mi NW 3.5 mph - N/A Snow Light Snow
12:13 PM 12.2 °F -0.2 °F 1.4 °F 62% 30.17 in 5.0 mi NW 9.2 mph - N/A Snow Light Snow
12:33 PM 12.2 °F 4.3 °F 1.4 °F 62% 30.18 in 7.0 mi WNW 4.6 mph - N/A Snow Light Snow
12:54 PM 10.4 °F 4.0 °F 1.4 °F 67% 30.18 in 7.0 mi NW 3.5 mph - N/A Snow Light Snow
1:13 PM 10.4 °F -0.4 °F 1.4 °F 67% 30.17 in 10.0 mi NW 6.9 mph - N/A Snow Light Snow
1:33 PM 10.4 °F -3.3 °F 1.4 °F 67% 30.18 in 5.0 mi West 10.4 mph - N/A Snow Light Snow
1:54 PM 12.2 °F 6.1 °F 1.4 °F 62% 30.18 in 7.0 mi WNW 3.5 mph - N/A Snow Light Snow
2:14 PM 12.2 °F 6.1 °F 3.2 °F 67% 30.17 in 4.0 mi WNW 3.5 mph - N/A Snow Light Snow
2:33 PM 10.4 °F -0.4 °F 1.4 °F 67% 30.18 in 10.0 mi West 6.9 mph - N/A Snow Light Snow
2:53 PM 10.4 °F -1.5 °F 1.4 °F 67% 30.17 in 7.0 mi WNW 8.1 mph - N/A Snow Light Snow
3:14 PM 8.6 °F -1.3 °F 1.4 °F 73% 30.18 in 10.0 mi WNW 5.8 mph - N/A Snow Light Snow
3:33 PM 8.6 °F 0.1 °F 1.4 °F 73% 30.18 in 4.0 mi West 4.6 mph - N/A Snow Light Snow
3:54 PM 6.8 °F - 1.4 °F 79% 30.17 in 3.0 mi Calm Calm - N/A Snow Light Snow
4:14 PM 6.8 °F -2.0 °F 1.4 °F 79% 30.17 in 4.0 mi WNW 4.6 mph - N/A Snow Light Snow
4:34 PM 6.8 °F -0.1 °F 1.4 °F 79% 30.18 in 5.0 mi WNW 3.5 mph - N/A Snow Light Snow
4:53 PM 6.8 °F -3.5 °F -0.4 °F 72% 30.18 in 10.0 mi WNW 5.8 mph - N/A   Clear
5:14 PM 6.8 °F -0.1 °F -0.4 °F 72% 30.17 in 10.0 mi WNW 3.5 mph - N/A Snow Light Snow
5:34 PM 6.8 °F -0.1 °F 1.4 °F 79% 30.17 in 7.0 mi West 3.5 mph - N/A   Mostly Cloudy
5:53 PM 6.8 °F -0.1 °F 1.4 °F 79% 30.17 in 10.0 mi WNW 3.5 mph - N/A   Overcast
6:14 PM 6.8 °F -2.0 °F 1.4 °F 79% 30.18 in 10.0 mi West 4.6 mph - N/A   Overcast
6:34 PM 8.6 °F -1.3 °F 3.2 °F 79% 30.18 in 10.0 mi West 5.8 mph - N/A   Overcast
6:53 PM 8.6 °F - 3.2 °F 79% 30.17 in 10.0 mi Calm Calm - N/A   Overcast
7:13 PM 8.6 °F 0.1 °F 3.2 °F 79% 30.18 in 10.0 mi West 4.6 mph - N/A Snow Light Snow
7:34 PM 6.8 °F -2.0 °F 1.4 °F 79% 30.17 in 10.0 mi WSW 4.6 mph - N/A   Mostly Cloudy
7:53 PM 6.8 °F -0.1 °F 1.4 °F 79% 30.17 in 10.0 mi WSW 3.5 mph - N/A   Overcast
8:13 PM 6.8 °F -0.1 °F 1.4 °F 79% 30.16 in 10.0 mi West 3.5 mph - N/A   Overcast
8:33 PM 6.8 °F -3.5 °F 1.4 °F 79% 30.16 in 10.0 mi WSW 5.8 mph - N/A   Overcast
8:53 PM 6.8 °F -2.0 °F 1.4 °F 79% 30.15 in 10.0 mi WSW 4.6 mph - N/A   Overcast
9:13 PM 6.8 °F - 1.4 °F 79% 30.15 in 10.0 mi Calm Calm - N/A   Overcast
9:34 PM 6.8 °F -0.1 °F 1.4 °F 79% 30.15 in 10.0 mi WSW 3.5 mph - N/A   Overcast
9:53 PM 8.6 °F 0.1 °F 1.4 °F 73% 30.14 in 10.0 mi West 4.6 mph - N/A   Overcast
10:13 PM 8.6 °F 0.1 °F 1.4 °F 73% 30.14 in 10.0 mi WSW 4.6 mph - N/A   Overcast
10:34 PM 8.6 °F -2.6 °F 1.4 °F 73% 30.14 in 10.0 mi WSW 6.9 mph - N/A   Overcast
10:53 PM 8.6 °F -3.7 °F 1.4 °F 73% 30.13 in 10.0 mi WSW 8.1 mph - N/A   Overcast
11:13 PM 8.6 °F -1.3 °F 3.2 °F 79% 30.12 in 10.0 mi WSW 5.8 mph - N/A   Overcast
11:34 PM 8.6 °F -2.6 °F 3.2 °F 79% 30.12 in 10.0 mi West 6.9 mph - N/A   Overcast
11:54 PM 10.4 °F 2.2 °F 3.2 °F 73% 30.12 in 10.0 mi WSW 4.6 mph - N/A   Overcast